星链-35161(STARLINK-35161)

导读

STARLINK-35161是美国SpaceX公司星链(Starlink)星座的卫星,于2025年10月8日发射,属于星链全球卫星互联网组网计划的组成部分。星链计划旨在为全球偏远地区提供低延迟高速宽带服务,这颗卫星运行在近地轨道,填补星座覆盖盲区,支撑更多用户接入网络,服务包括移动通信、宽带接入等场景,是SpaceX推进巨型星座建设的其中一颗。

基本信息
目录编号:
65936
目录名称:
STARLINK-35161
国际标识:
2025-225AC
轨道中心:
EARTH
卫星名称:
星链-35161
卫星全名:
星链-35161(STARLINK-35161)
卫星状态:
在轨 (已飞行248 天)
发射日期:
2025-10-08 UTC
国别 :
美国 (US)
星等 :
--
轨道信息
数据来源 国际轨道数据
星历时间: 2026-06-13T09:40:52+0800
10小时前
查看轨道信息
半长轴: 6840.877km
偏心率: 0.0001053
轨道倾角: 53.159°
近地点辐角 75.908°
升交点赤经 82.476°
平近点角 284.204°
近地点: 462.019km
远地点: 463.461km
周期: 93.849分钟
每日圈数: 15.343878
详细信息
固有亮度:
5
最大亮度:
2.5
卫星平台:
Starlink V1.0
覆盖范围:
全球
运营商:
太空探索技术公司
运营商所在国:
美国
制造商(研发单位):
太空探索技术公司
制造商所在国:
美国
使用方式:
暂无
卫星简介
Starlink 计划是 SpaceX 推出的全球卫星互联网项目,通过发射低轨道卫星,为全球尤其是偏远地区提供高速、低延迟的互联网服务。自 2019 年起,Starlink 已部署数千颗卫星,旨在缩小全球数字鸿沟,推动互联网普及。该项目还为军事、航空等行业提供通信支持,带来广泛经济效益。
2D轨道图
3D轨道图
轨道高度分析图
轨道倾角分析图
轨道综合分析图
查看轨道综合分析图